Location: Newark
(43.0000°N, 1.6781°W)
Time: 04:42:59
(UTC+00:00)

Vanguard 2 - All Passes

Search period start: 14 April 2021 00:00
Search period end: 24 April 2021 00:00
Orbit: 552 x 2938 km, 32.9° (Epoch: 13 April)

Date Brightness Start Highest point End Pass type
(mag) Time Alt. Az. Time Alt. Az. Time Alt. Az.
14 Apr - 12:45:58 10° SSW 12:55:44 23° SSE 13:02:54 10° ESE daylight
14 Apr - 14:55:06 10° SW 15:05:09 36° S 15:11:35 10° ESE daylight
14 Apr - 17:06:12 10° WSW 17:13:40 35° S 17:18:36 10° SE daylight
14 Apr - 19:17:53 10° WSW 19:21:03 15° SSW 19:23:42 10° S visible
15 Apr - 10:57:58 10° SSE 11:03:30 13° SSE 11:08:24 10° SE daylight
15 Apr - 13:02:17 10° SSW 13:13:26 29° SSE 13:21:10 10° ESE daylight
15 Apr - 15:12:30 10° WSW 15:22:49 40° S 15:29:17 10° ESE daylight
15 Apr - 17:24:00 10° WSW 17:31:10 32° SSW 17:35:58 10° SE daylight
15 Apr - 19:37:13 10° SW 19:38:18 11° SW 19:39:19 10° SSW visible
16 Apr - 11:11:54 10° S 11:21:08 18° SSE 11:28:37 10° ESE daylight
16 Apr - 13:19:03 10° SW 13:31:07 35° SSE 13:39:09 10° ESE daylight
16 Apr - 15:30:05 10° WSW 15:40:28 42° S 15:46:53 10° ESE daylight
16 Apr - 17:41:55 10° WSW 17:48:36 28° SSW 17:53:13 10° SE daylight
17 Apr - 11:27:19 10° SSW 11:38:46 24° SSE 11:47:33 10° ESE daylight
17 Apr - 13:36:08 10° SW 13:48:48 40° SSE 13:57:00 10° ESE daylight
17 Apr - 15:47:46 10° WSW 15:58:03 43° S 16:04:25 10° ESE daylight
17 Apr - 17:59:57 10° WSW 18:05:57 24° SSW 18:10:17 10° SSE daylight
18 Apr - 09:40:47 10° SSE 09:46:14 12° SE 09:51:16 10° ESE daylight
18 Apr - 11:43:27 10° SSW 11:56:24 30° SSE 12:05:55 10° E daylight
18 Apr - 13:53:29 10° WSW 14:06:29 44° S 14:14:43 10° ESE daylight
18 Apr - 16:05:33 10° WSW 16:15:37 41° SSW 16:21:53 10° SE daylight
18 Apr - 18:18:14 10° WSW 18:23:13 18° SW 18:27:01 10° S daylight
19 Apr - 09:54:01 10° S 10:03:44 18° SE 10:12:10 10° ESE daylight
19 Apr - 12:00:04 10° SW 12:14:04 36° SSE 12:24:00 10° E daylight
19 Apr - 14:11:00 10° WSW 14:24:09 48° S 14:32:21 10° ESE daylight
19 Apr - 16:23:25 10° W 16:33:07 38° SSW 16:39:14 10° SE daylight
19 Apr - 18:37:02 10° WSW 18:40:22 14° SW 18:43:10 10° S daylight
20 Apr - 10:09:05 10° SSW 10:21:15 24° SSE 10:31:23 10° ESE daylight
20 Apr - 12:17:00 10° SW 12:31:43 42° SSE 12:41:53 10° E daylight
20 Apr - 14:28:40 10° WSW 14:41:48 49° S 14:49:56 10° ESE daylight
20 Apr - 16:41:22 10° W 16:50:31 33° SSW 16:56:26 10° SE daylight
21 Apr - 08:26:06 10° SE 08:28:41 10° SE 08:31:13 10° SE daylight
21 Apr - 10:24:58 10° SSW 10:38:47 30° SSE 10:49:57 10° E daylight
21 Apr - 12:34:13 10° SW 12:49:24 47° SSE 12:59:40 10° E daylight
21 Apr - 14:46:25 10° WSW 14:59:25 49° S 15:07:27 10° ESE daylight
21 Apr - 16:59:26 10° W 17:07:49 28° SSW 17:13:28 10° SSE daylight
22 Apr - 08:37:06 10° S 08:46:02 16° SE 08:54:24 10° ESE daylight
22 Apr - 10:41:22 10° SSW 10:56:21 36° SSE 11:08:09 10° E daylight
22 Apr - 12:51:39 10° WSW 13:07:05 51° S 13:17:21 10° ESE daylight
22 Apr - 15:04:14 10° W 15:16:59 46° SSW 15:24:53 10° ESE daylight
22 Apr - 17:17:44 10° W 17:25:01 22° SW 17:30:14 10° SSE daylight
23 Apr - 08:51:38 10° S 09:03:23 22° SE 09:14:10 10° E daylight
23 Apr - 10:58:09 10° SW 11:13:57 42° SSE 11:26:08 10° E daylight
23 Apr - 13:09:14 10° WSW 13:24:46 53° S 13:34:59 10° ESE daylight
23 Apr - 15:22:09 10° W 15:34:28 43° SSW 15:42:13 10° SE daylight
23 Apr - 17:36:24 10° WSW 17:42:06 17° SW 17:46:31 10° S daylight
